sat.trackr.live / text

‹ back to catalog

STARLINK-33601

NORAD 62768 · 2025-015L

PAYLOAD ACTIVE UNKNOWN

§ Identity

Operator
Country
US
Launch date
2025-01-21
Launch site
AFWTR
Launch vehicle
Mass (kg)
RCS (m²)

Purposes: comms

External: N2YO · Heavens-Above · Gunter

§ Orbital elements

Epoch: 2026-09-21T22:17:06.681984Z

Period
93.85 min
Inclination
53.1579°
Eccentricity
0.0001399
Mean motion
15.34410349 rev/d
Perigee alt
461.7 km
Apogee alt
463.6 km
Semi-major
6,840.8 km
B*
4.6682e-4
RAAN
126.8701°
Arg perigee
136.8522°
Mean anomaly
223.2591°
Rev number
9,458

§ Raw data

STARLINK-336011 62768U 25015L   26264.92854956  .00015434  00000+0  46682-3 0  99952 62768  53.1579 126.8701 0001399 136.8522 223.2591 15.34410349 94589

JSON: /api/v1/satellites/62768 · /tle

For live sub-satellite position, see the globe view (requires WebGL).

§ Visibility from observer

Set your observer location to see the next 7 days of passes ≥ 10°. The values pass through the URL so the page stays shareable.

No JS? Fill the form by hand. The geolocation button needs JavaScript.